Date_and_time,latitude,longitude,wind_speed,RelWindDirFrom,WindDirFrom,air_pressure,air_temperature,relative_humidity,Temp,platform_speed_wrt_ground,air_pressure_at_mean_sea_level,platform_orientation
2019-07-30 00:00,53.0835233333333,-98.224965,1.4,3.3,276,990.41,19.5,44,18.62,2.7,1016.54,115.4
2019-07-30 00:10,53.0801883333333,-98.2133566666667,2.5,3.9,286,990.44,19.6,43,18.63,2.8,1016.59,115.4
2019-07-30 00:20,53.0753833333333,-98.2008083333333,2.4,3.9,269,990.41,20.1,43,18.68,3.2,1016.56,115.4
2019-07-30 00:30,53.0749916666667,-98.1995883333333,5.4,6.7,293,990.39,18.7,45,18.93,0.3,1016.60,115.4
2019-07-30 00:40,53.0749866666667,-98.1995833333333,5.3,6.1,293,990.35,18.2,45,19.02,0.0,1016.57,115.4
2019-07-30 00:50,53.07496,-98.1996516666667,5.6,6.5,286,990.36,18.3,45,19.07,0.0,1016.59,115.4
2019-07-30 01:00,53.07498,-98.1996233333333,4.2,5.5,288,990.34,18.4,45,19.11,0.0,1016.56,117.1
2019-07-30 01:10,53.058215,-98.2072316666667,7.0,11.9,233,990.24,18.4,45,19.09,6.3,1016.45,117.1
2019-07-30 01:20,53.02836,-98.2150333333333,11.1,13.0,220,990.17,18.1,45,19.00,10.9,1016.39,117.1
2019-07-30 01:30,52.998345,-98.2233033333333,10.1,11.7,216,990.20,18.1,44,19.13,11.0,1016.40,117.1
2019-07-30 01:40,52.9680366666667,-98.2297433333333,9.2,10.2,212,990.26,18.1,44,18.97,11.0,1016.40,117.1
2019-07-30 01:50,52.9375866666667,-98.236165,8.2,9.5,203,990.32,18.1,46,18.64,11.0,1016.44,117.1
2019-07-30 02:00,52.907375,-98.2425533333333,9.5,11.0,198,990.38,17.9,47,18.53,11.0,1016.49,156.3
2019-07-30 02:10,52.87719,-98.2484983333333,10.4,11.0,194,990.39,17.7,49,18.52,10.9,1016.49,156.3
2019-07-30 02:20,52.8668416666667,-98.2501666666667,3.2,10.3,209,990.58,17.6,50,18.54,3.7,1016.76,156.3
2019-07-30 02:30,52.8666783333333,-98.2504383333333,1.5,2.2,292,990.64,17.4,52,18.55,0.1,1016.85,156.3
2019-07-30 02:40,52.86668,-98.2503633333333,1.5,1.9,294,990.71,17.2,51,18.53,0.0,1016.93,156.3
2019-07-30 02:50,52.8666866666667,-98.25039,1.3,1.8,279,990.78,17.2,51,18.52,0.0,1017.00,156.3
2019-07-30 03:00,52.86666,-98.25038,1.8,2.2,265,990.93,17.2,51,18.52,0.0,1017.15,184.1
2019-07-30 03:10,52.866675,-98.2503616666667,1.5,1.9,264,990.94,17.2,51,18.53,0.0,1017.18,184.1
2019-07-30 03:20,52.8666816666667,-98.250365,1.2,1.5,265,990.95,17.2,52,18.52,0.0,1017.19,184.1
2019-07-30 03:30,52.8667183333333,-98.2503816666667,0.3,1.0,313,991.01,17.2,52,18.51,0.0,1017.25,184.1
2019-07-30 03:40,52.8666883333333,-98.2503666666667,0.5,1.1,284,991.09,17.1,53,18.51,0.0,1017.33,184.1
2019-07-30 03:50,52.8666983333333,-98.2504633333333,0.2,1.5,153,991.06,17.1,55,18.53,0.0,1017.31,184.1
2019-07-30 04:00,52.866705,-98.25044,2.2,3.0,123,991.07,17.4,54,18.56,0.0,1017.31,188.4
2019-07-30 04:10,52.86671,-98.2504566666667,2.1,2.8,99,991.01,17.5,54,18.57,0.0,1017.26,188.4
2019-07-30 04:20,52.866745,-98.2505066666667,2.7,3.7,113,990.94,17.5,54,18.55,0.0,1017.19,188.4
2019-07-30 04:30,52.8667016666667,-98.2501383333333,2.9,4.5,216,990.96,17.1,55,18.53,0.1,1017.23,188.4
2019-07-30 04:40,52.866695,-98.2503583333333,1.9,4.7,174,990.92,17.4,57,18.54,0.0,1017.19,188.4
2019-07-30 04:50,52.86684,-98.2500066666667,4.0,5.8,230,991.08,17.3,56,18.56,0.1,1017.36,188.4
2019-07-30 05:00,52.8668233333333,-98.249935,4.8,5.9,257,991.15,17.4,55,18.53,0.0,1017.43,186.3
2019-07-30 05:10,52.8668083333333,-98.249915,5.3,6.4,266,991.22,17.6,51,18.51,0.0,1017.48,186.3
2019-07-30 05:20,52.8668333333333,-98.2499333333333,4.9,5.7,260,991.26,17.6,51,18.51,0.0,1017.52,186.3
2019-07-30 05:30,52.8669466666667,-98.2498833333333,5.4,6.3,249,991.23,17.6,53,18.50,0.0,1017.50,186.3
2019-07-30 05:40,52.86693,-98.2498716666667,5.8,6.3,244,991.10,17.7,52,18.49,0.0,1017.36,186.3
2019-07-30 05:50,52.866985,-98.249915,6.0,7.3,241,991.10,17.7,54,18.48,0.0,1017.35,186.3
2019-07-30 06:00,52.8670233333333,-98.2499466666667,6.0,7.3,236,991.06,17.7,57,18.49,0.0,1017.31,35.6
2019-07-30 06:10,52.8670433333333,-98.2499283333333,6.7,7.9,226,991.01,17.6,56,18.51,0.0,1017.26,35.6
2019-07-30 06:20,52.8670416666667,-98.24995,6.1,7.5,228,991.00,17.6,57,18.52,0.0,1017.27,35.6
2019-07-30 06:30,52.8670533333333,-98.249935,6.8,7.8,227,991.06,17.5,61,18.51,0.0,1017.32,35.6
2019-07-30 06:40,52.8670466666667,-98.249905,7.1,8.6,226,991.07,17.3,65,18.50,0.0,1017.34,35.6
2019-07-30 06:50,52.8670683333333,-98.2499416666667,7.4,8.5,223,991.07,17.3,62,18.49,0.0,1017.34,35.6
2019-07-30 07:00,52.8670883333333,-98.249935,7.8,8.8,223,991.08,17.3,62,18.48,0.0,1017.34,39.6
2019-07-30 07:10,52.8671216666667,-98.249875,8.6,9.9,227,991.07,17.3,63,18.48,0.0,1017.33,39.6
2019-07-30 07:20,52.8671766666667,-98.2499033333333,8.3,9.7,223,991.06,17.3,61,18.47,0.0,1017.31,39.6
2019-07-30 07:30,52.8671166666667,-98.2498266666667,8.4,9.3,219,991.05,17.3,60,18.47,0.0,1017.30,39.6
2019-07-30 07:40,52.867135,-98.2498116666667,9.0,10.3,229,991.07,17.4,59,18.47,0.0,1017.32,39.6
2019-07-30 07:50,52.8670566666667,-98.2497316666667,9.4,11.9,242,991.04,17.4,64,18.47,0.0,1017.29,39.6
2019-07-30 08:00,52.867135,-98.2497233333333,9.2,11.1,237,991.05,17.2,64,18.47,0.0,1017.31,22.8
2019-07-30 08:10,52.867135,-98.2497733333333,9.6,10.9,237,991.04,17.2,60,18.48,0.0,1017.30,22.8
2019-07-30 08:20,52.86712,-98.2497133333333,9.4,10.7,233,991.04,17.1,62,18.51,0.0,1017.31,22.8
2019-07-30 08:30,52.8671916666667,-98.2497616666667,9.5,10.5,232,991.04,17.1,60,18.53,0.0,1017.32,22.8
2019-07-30 08:40,52.86715,-98.2497666666667,8.5,10.0,233,991.06,17.1,65,18.54,0.0,1017.35,22.8
2019-07-30 08:50,52.8672,-98.249775,9.4,10.5,233,991.01,17.0,64,18.54,0.0,1017.29,22.8
2019-07-30 09:00,52.8671883333333,-98.2497566666667,9.5,10.6,236,991.03,17.0,61,18.51,0.0,1017.31,35.1
2019-07-30 09:10,52.8671416666667,-98.249715,9.3,10.5,236,991.04,17.0,64,18.48,0.0,1017.32,35.1
2019-07-30 09:20,52.8671616666667,-98.2497166666667,10.0,11.2,233,991.07,17.1,59,18.48,0.0,1017.35,35.1
2019-07-30 09:30,52.8672133333333,-98.24974,10.8,12.4,235,991.09,17.2,58,18.50,0.0,1017.35,35.1
2019-07-30 09:40,52.8671766666667,-98.2496783333333,11.2,12.7,236,991.09,17.2,58,18.50,0.0,1017.35,35.1
2019-07-30 09:50,52.867165,-98.2495666666667,12.0,13.8,239,991.03,17.2,57,18.47,0.0,1017.31,35.1
2019-07-30 10:00,52.8672,-98.2496266666667,11.7,13.2,234,991.07,17.0,61,18.43,0.0,1017.36,57.7
2019-07-30 10:10,52.8669083333333,-98.2502333333333,12.2,14.5,229,991.10,16.7,63,18.42,0.2,1017.40,57.7
2019-07-30 10:20,52.8658083333333,-98.2609883333333,13.8,15.8,230,991.09,16.6,62,18.40,2.4,1017.40,57.7
2019-07-30 10:30,52.86426,-98.2718033333333,13.8,15.4,229,991.15,16.7,62,18.40,2.4,1017.46,57.7
2019-07-30 10:40,52.862055,-98.28211,13.4,15.6,231,991.25,16.6,63,18.41,2.4,1017.56,57.7
2019-07-30 10:50,52.8597966666667,-98.2958416666667,12.7,20.0,234,991.29,16.6,67,18.43,3.1,1017.61,57.7
2019-07-30 11:00,52.8503016666667,-98.3426516666667,20.1,21.6,242,990.80,16.5,66,18.50,10.7,1017.10,253.3
2019-07-30 11:10,52.8410916666667,-98.3899466666667,19.5,21.3,240,990.93,16.5,65,18.62,10.8,1017.24,253.3
2019-07-30 11:20,52.8319116666667,-98.4372166666667,18.2,20.0,238,991.08,16.7,63,18.61,10.8,1017.38,253.3
2019-07-30 11:30,52.8288,-98.4529866666667,10.9,14.7,225,991.61,16.7,65,18.85,3.6,1017.92,253.3
2019-07-30 11:40,52.8267716666667,-98.4645866666667,10.1,11.1,219,991.74,16.8,62,18.88,2.6,1018.06,253.3
2019-07-30 11:50,52.82467,-98.4759583333333,10.5,11.6,221,991.69,16.8,63,18.96,2.6,1018.01,253.3
2019-07-30 12:00,52.8219,-98.48697,11.1,12.4,218,991.66,16.7,62,19.22,2.6,1018.01,252.6
2019-07-30 12:10,52.8203666666667,-98.49422,11.2,13.7,214,991.71,16.6,63,19.39,1.7,1018.06,252.6
2019-07-30 12:20,52.8203766666667,-98.4941516666667,10.0,11.7,214,991.81,16.5,62,19.46,0.0,1018.16,252.6
2019-07-30 12:30,52.8203366666667,-98.4941283333333,10.0,11.8,213,991.86,16.6,60,19.48,0.0,1018.21,252.6
2019-07-30 12:40,52.8109883333333,-98.5056733333333,14.0,21.1,213,991.56,16.6,60,19.49,4.2,1017.91,252.6
2019-07-30 12:50,52.7867,-98.5355,19.7,21.0,210,991.14,16.5,60,19.58,10.9,1017.48,252.6
2019-07-30 13:00,52.7625633333333,-98.5653683333333,20.0,21.1,209,991.16,16.3,58,19.86,10.9,1017.51,241.4
2019-07-30 13:10,52.7380133333333,-98.594045,19.1,21.2,211,991.19,16.1,58,19.50,10.8,1017.55,241.4
2019-07-30 13:20,52.7133416666667,-98.6219633333333,20.9,22.7,217,991.06,15.7,59,18.87,10.8,1017.43,241.4
2019-07-30 13:30,52.6891316666667,-98.6506616666667,20.8,22.7,218,991.01,15.4,63,18.84,10.7,1017.39,241.4
2019-07-30 13:40,52.6785083333333,-98.661895,13.1,20.4,211,991.66,15.1,66,19.16,4.5,1018.07,241.4
2019-07-30 13:50,52.6723666666667,-98.66744,11.3,12.7,207,991.89,15.2,68,19.31,2.5,1018.31,241.4
2019-07-30 14:00,52.6668366666667,-98.6752283333333,10.8,12.7,208,991.90,15.5,66,19.41,2.6,1018.30,227.8
2019-07-30 14:10,52.6583433333333,-98.6865283333333,11.5,16.2,206,991.82,16.0,61,19.46,3.9,1018.20,227.8
2019-07-30 14:20,52.654475,-98.6907116666667,9.0,17.6,202,991.91,16.9,56,19.52,1.7,1018.26,227.8
2019-07-30 14:30,52.6544783333333,-98.6905416666667,8.6,11.4,203,991.96,17.3,52,19.54,0.0,1018.28,227.8
2019-07-30 14:40,52.6536483333333,-98.6914633333333,8.4,12.7,203,991.92,17.7,50,19.56,0.4,1018.23,227.8
2019-07-30 14:50,52.641935,-98.7069116666667,12.6,17.6,208,991.67,18.1,47,19.44,5.4,1017.96,227.8
2019-07-30 15:00,52.6420133333333,-98.7068166666667,8.4,12.1,199,991.81,18.8,43,19.30,0.0,1018.09,216.6
2019-07-30 15:10,52.6420016666667,-98.7068366666667,8.4,11.6,199,991.76,19.1,41,19.29,0.0,1018.03,216.6
2019-07-30 15:20,52.642015,-98.70695,7.8,10.9,181,991.75,19.4,40,19.27,0.0,1018.03,216.6
2019-07-30 15:30,52.6420233333333,-98.7068983333333,9.9,13.6,184,991.65,19.7,38,19.27,0.0,1017.93,216.6
2019-07-30 15:40,52.641985,-98.7068016666667,9.5,13.9,198,991.58,19.9,35,19.27,0.0,1017.85,216.6
2019-07-30 15:50,52.6515983333333,-98.69507,6.4,13.7,178,991.64,20.3,35,19.24,4.3,1017.87,216.6
2019-07-30 16:00,52.6516733333333,-98.6474916666667,12.4,18.0,139,991.54,20.2,37,19.50,10.4,1017.75,204.2
2019-07-30 16:10,52.6488766666667,-98.597555,14.4,16.5,137,991.55,20.0,39,19.56,11.0,1017.73,204.2
2019-07-30 16:20,52.6470716666667,-98.5474616666667,13.2,15.9,131,991.67,19.8,40,19.33,11.0,1017.84,204.2
2019-07-30 16:30,52.64534,-98.4976233333333,14.2,16.6,124,991.73,19.6,43,19.21,10.9,1017.89,204.2
2019-07-30 16:40,52.6430316666667,-98.448115,17.2,19.1,124,991.64,19.2,51,19.43,10.8,1017.80,204.2
2019-07-30 16:50,52.6403433333333,-98.3978983333333,17.9,19.6,125,991.61,18.9,52,19.76,11.0,1017.75,204.2
2019-07-30 17:00,52.6408566666667,-98.3738866666667,13.2,19.6,140,991.78,18.9,52,20.02,5.2,1017.92,98.0
2019-07-30 17:10,52.640495,-98.36209,12.0,13.6,148,991.79,18.9,54,20.08,2.6,1017.91,98.0
2019-07-30 17:20,52.6398766666667,-98.35033,12.0,13.6,147,991.75,18.8,55,19.89,2.6,1017.86,98.0
2019-07-30 17:30,52.638465,-98.3388133333333,11.9,13.0,146,991.69,18.8,55,19.73,2.6,1017.79,98.0
2019-07-30 17:40,52.6359533333333,-98.3260216666667,12.2,14.8,141,991.62,18.8,53,19.70,2.9,1017.70,98.0
2019-07-30 17:50,52.6363383333333,-98.3263583333333,9.6,11.1,143,991.53,18.8,52,19.85,0.2,1017.61,98.0
2019-07-30 18:00,52.6363566666667,-98.3262583333333,10.1,11.7,141,991.43,19.0,53,19.83,0.0,1017.51,91.3
2019-07-30 18:10,52.6361216666667,-98.3261283333333,10.5,12.3,138,991.27,19.0,52,19.85,0.1,1017.36,91.3
2019-07-30 18:20,52.63666,-98.2836133333333,19.1,21.6,118,990.76,19.0,55,19.86,9.3,1016.84,91.3
2019-07-30 18:30,52.6352783333333,-98.2339433333333,20.2,22.3,119,990.68,18.9,54,19.33,10.9,1016.78,91.3
2019-07-30 18:40,52.63593,-98.183855,19.1,21.1,114,990.79,19.0,52,19.16,10.9,1016.90,91.3
2019-07-30 18:50,52.6362683333333,-98.1335233333333,18.1,19.9,116,990.88,19.1,52,19.17,11.0,1016.99,91.3
2019-07-30 19:00,52.6365383333333,-98.0835033333333,18.0,20.9,113,990.85,19.4,50,19.36,10.9,1016.95,92.3
2019-07-30 19:10,52.6366066666667,-98.034075,20.4,22.3,117,990.69,19.3,53,20.20,10.8,1016.79,92.3
2019-07-30 19:20,52.636275,-97.9847566666667,20.0,21.9,124,990.80,19.0,52,20.11,10.8,1016.92,92.3
2019-07-30 19:30,52.6367116666667,-97.9349716666667,19.1,20.8,128,990.88,19.1,48,19.56,10.9,1017.00,92.3
2019-07-30 19:40,52.6388016666667,-97.8851733333333,19.3,21.2,129,990.85,19.2,48,19.42,10.9,1016.96,92.3
2019-07-30 19:50,52.6406483333333,-97.83512,19.4,21.2,130,990.86,19.1,50,19.26,11.0,1016.96,92.3
2019-07-30 20:00,52.6414716666667,-97.7894433333333,17.8,20.6,132,990.90,19.0,52,19.11,10.0,1017.01,89.7
2019-07-30 20:10,52.6419266666667,-97.776905,12.3,13.6,156,991.10,19.0,53,19.11,2.7,1017.22,89.7
2019-07-30 20:20,52.6418,-97.7657233333333,11.9,12.8,154,991.10,19.0,54,19.14,2.4,1017.22,89.7
2019-07-30 20:30,52.6413983333333,-97.75448,11.9,12.9,150,991.03,19.0,56,19.15,2.5,1017.14,89.7
2019-07-30 20:40,52.6418416666667,-97.73576,11.2,14.4,143,991.01,19.0,57,19.16,4.1,1017.11,89.7
2019-07-30 20:50,52.6406316666667,-97.7342583333333,9.3,13.1,146,991.06,18.9,55,19.14,0.5,1017.16,89.7
2019-07-30 21:00,52.6406516666667,-97.734405,8.9,9.8,146,990.97,19.1,54,19.10,0.0,1017.07,89.1
2019-07-30 21:10,52.6406516666667,-97.7344616666667,9.1,10.1,146,990.89,19.1,54,19.18,0.0,1016.99,89.1
2019-07-30 21:20,52.6406533333333,-97.7344266666667,9.4,10.4,149,990.83,19.2,53,19.20,0.0,1016.92,89.1
2019-07-30 21:30,52.6406466666667,-97.73445,9.2,10.7,148,990.80,19.3,54,19.23,0.0,1016.89,89.1
2019-07-30 21:40,52.6406483333333,-97.73446,9.0,10.2,141,990.68,19.3,55,19.25,0.0,1016.77,89.1
2019-07-30 21:50,52.6344233333333,-97.732625,11.9,20.5,145,990.46,19.3,56,19.26,2.3,1016.55,89.1
2019-07-30 22:00,52.6049633333333,-97.7248783333333,20.1,21.7,149,989.82,19.4,55,19.37,10.7,1015.89,98.1
2019-07-30 22:10,52.575555,-97.7157166666667,20.0,21.9,146,989.77,19.5,56,19.56,10.8,1015.83,98.1
2019-07-30 22:20,52.5462516666667,-97.7094483333333,19.8,21.7,148,989.70,19.7,52,19.85,10.6,1015.75,98.1
2019-07-30 22:30,52.51667,-97.7026966666667,20.2,21.9,148,989.71,19.9,52,20.05,10.8,1015.75,98.1
2019-07-30 22:40,52.48713,-97.6952166666667,20.0,22.0,147,989.73,20.2,49,20.28,10.8,1015.76,98.1
2019-07-30 22:50,52.45774,-97.6859016666667,20.0,21.9,144,989.71,20.3,47,20.51,10.8,1015.73,98.1
2019-07-30 23:00,52.4281383333333,-97.6788066666667,19.9,21.6,141,989.55,20.4,48,20.70,10.8,1015.56,162.4
2019-07-30 23:10,52.398695,-97.6695766666667,20.2,22.8,141,989.53,20.5,49,20.85,10.8,1015.53,162.4
2019-07-30 23:20,52.369185,-97.6621783333333,20.6,22.2,141,989.47,20.4,48,21.04,10.7,1015.46,162.4
2019-07-30 23:30,52.3397316666667,-97.6548116666667,21.1,23.0,140,989.36,20.5,49,21.16,10.7,1015.36,162.4
2019-07-30 23:40,52.3103716666667,-97.6469366666667,21.3,23.2,137,989.23,20.6,48,21.38,10.7,1015.21,162.4
